ATLAS 5 CENTAUR DEB, 46643

Orbit data source: Space-Track

ATLAS 5 CENTAUR DEB, 46643 is space debris in HEO originally from a launch on Wed, 17 Sep 2014 UTC launched from the Air Force Eastern Test Range (AFETR). Debris objects in space refer to the collection of defunct objects orbiting the Earth. Examples of debris include non-operational satellites, rocket bodies, and fragments generated from explosions, collisions, or faulty payload assembly.

Loading next visibility...
Identifier
46643, 2014-055CT
Orbit
HEO
Country
Flag of USUS
Related business
Flag of USUnited Launch Alliance/Lockheed Martin (US)
Manufacturer
Unknown
Mission
Spacecraft
Bus & Motor
Unknown
Mass
Unknown
Launch date (UTC)
2014-09-17 (12 years ago)
Launch vehicle
Unknown
Launch site
Air Force Eastern Test Range (AFETR)
Object type
Payload
Rocket body
Debris
Shape & HBR
Unknown shape, 1.1 m
Radar Cross Section
RCS unknown

Expand to show TLE details & history
Last TLE update: 1 year ago

TLE from 1 year ago
0 ATLAS 5 CENTAUR DEB
1 46643U 14055CT  25249.51605884  .00000007  00000-0  00000-0 0  9994
2 46643  19.6990 176.1856 4903766 112.4077 305.5009  1.85047316 33227
Epoch: 2025-09-06T12:23Z
TLE epoch observation values (Epoch: 2025-09-06T12:23:07.483Z)
Latitude
0.00004°
Longitude
4.46586°
Altitude
19,850.5 km
Speed
4.021 km/s
True Right ascension
11h 44m 22s
True Declination
0° 00' 00"
Sunlit
Object was in daylight at epoch
Visualization orbit readout
Latitude
Unknown
Longitude
Unknown
Altitude
Unknown
Speed
Unknown
Apparent Right ascension
Unknown
Apparent Declination
Unknown
Sunlit
N/A
Visualization observer readout
Local Sidereal Time
17:45:57
Azimuth
Unknown
Elevation
Unknown
Doppler factor
Unknown
Orbital elements
Apogee altitude
35,392.727 km
Perigee altitude
7,905.105 km
Semi-major axis
28,027.053 km
Eccentricity
0.49038
Inclination
19.699°
RAAN
176.1856°
Arg. of periapsis
112.4077°
True anomaly
247.53408°
Mean anomaly
305.5009°
Eccentric anomaly
277.65477°
Mean motion
0.46257 °/min
Orbital period
778.26 mins
BSTAR
0
Loading maneuver chart data...
Computing Atmospheric mass density...

Documentation

Showing up to 5 results
|